Hourly Weather Cerkno

Today, 14 June, Monday

Time Temperature Precipitation Wind Pressure Humidity
00:00 +13°C° 0 mm 1 mps 709 mmHg 86%
01:00 +12°C° 0 mm 1 mps 709 mmHg 87%
02:00 +12°C° 0 mm 1 mps 709 mmHg 89%
03:00 +11°C° 0 mm 1 mps 708 mmHg 90%
04:00 +10°C° 0 mm 2 mps 708 mmHg 92%
05:00 +12°C° 0 mm 2 mps 708 mmHg 87%
06:00 +13°C° 0 mm 2 mps 709 mmHg 82%
07:00 +14°C° 0 mm 2 mps 709 mmHg 76%
08:00 +16°C° 0 mm 2 mps 709 mmHg 69%
09:00 +17°C° 0 mm 2 mps 709 mmHg 61%
10:00 +19°C° 0 mm 2 mps 709 mmHg 54%
11:00 +20°C° 0 mm 2 mps 709 mmHg 51%
12:00 +21°C° 0 mm 2 mps 708 mmHg 48%
13:00 +23°C° 0 mm 2 mps 708 mmHg 46%
14:00 +23°C° 0 mm 2 mps 708 mmHg 47%
15:00 +23°C° 0 mm 2 mps 708 mmHg 48%
16:00 +23°C° 0 mm 2 mps 707 mmHg 50%
17:00 +21°C° 0 mm 2 mps 707 mmHg 59%
18:00 +20°C° 0 mm 1 mps 707 mmHg 68%
19:00 +19°C° 0 mm 1 mps 707 mmHg 77%
20:00 +16°C° 0 mm 1 mps 707 mmHg 78%
21:00 +15°C° 0 mm 1 mps 708 mmHg 80%
22:00 +14°C° 0 mm 1 mps 708 mmHg 81%
23:00 +13°C° 0 mm 1 mps 708 mmHg 80%

Tomorrow, 15 June, Tuesday

Time Temperature Precipitation Wind Pressure Humidity
00:00 +13°C° 0 mm 1 mps 708 mmHg 78%
01:00 +13°C° 0 mm 1 mps 708 mmHg 77%
02:00 +12°C° 0 mm 1 mps 708 mmHg 78%
03:00 +12°C° 0 mm 1 mps 707 mmHg 78%
04:00 +11°C° 0 mm 1 mps 707 mmHg 79%
05:00 +13°C° 0 mm 1 mps 708 mmHg 74%
06:00 +15°C° 0 mm 1 mps 708 mmHg 69%
07:00 +15°C° 0 mm 0 mps 708 mmHg 64%
08:00 +19°C° 0 mm 1 mps 708 mmHg 60%
09:00 +21°C° 0 mm 1 mps 708 mmHg 56%
10:00 +23°C° 0 mm 1 mps 708 mmHg 52%
11:00 +24°C° 0 mm 1 mps 708 mmHg 50%
12:00 +24°C° 0 mm 1 mps 708 mmHg 49%
13:00 +25°C° 0 mm 1 mps 708 mmHg 47%
14:00 +25°C° 0 mm 1 mps 707 mmHg 49%
15:00 +25°C° 0 mm 1 mps 707 mmHg 50%
16:00 +25°C° 0 mm 1 mps 707 mmHg 52%
17:00 +23°C° 0 mm 1 mps 707 mmHg 62%
18:00 +22°C° 0 mm 1 mps 707 mmHg 72%
19:00 +20°C° 0 mm 1 mps 707 mmHg 82%
20:00 +19°C° 0 mm 1 mps 707 mmHg 85%
21:00 +18°C° 0 mm 1 mps 707 mmHg 88%
22:00 +16°C° 0 mm 1 mps 707 mmHg 91%
23:00 +16°C° 0 mm 1 mps 706 mmHg 91%

Day after tomorrow, 16 June, Wednesday

Time Temperature Precipitation Wind Pressure Humidity
00:00 +15°C° 0 mm 1 mps 706 mmHg 91%
01:00 +15°C° 0 mm 1 mps 706 mmHg 90%
02:00 +15°C° 0 mm 1 mps 706 mmHg 90%
03:00 +14°C° 0 mm 1 mps 706 mmHg 90%
04:00 +14°C° 0 mm 1 mps 706 mmHg 90%
05:00 +16°C° 0 mm 1 mps 706 mmHg 83%
06:00 +19°C° 0 mm 1 mps 706 mmHg 76%
07:00 +20°C° 0 mm 1 mps 707 mmHg 69%
08:00 +22°C° 0 mm 1 mps 707 mmHg 63%
09:00 +24°C° 0 mm 1 mps 707 mmHg 56%
10:00 +25°C° 0 mm 1 mps 707 mmHg 49%
11:00 +26°C° 0 mm 1 mps 707 mmHg 48%
12:00 +27°C° 0 mm 1 mps 707 mmHg 46%
13:00 +27°C° 0 mm 1 mps 707 mmHg 44%
14:00 +27°C° 0.1 mm 1 mps 706 mmHg 47%
15:00 +26°C° 0.1 mm 1 mps 706 mmHg 51%
16:00 +26°C° 0.1 mm 1 mps 706 mmHg 54%
17:00 +24°C° 0.2 mm 1 mps 706 mmHg 63%
18:00 +23°C° 0.2 mm 1 mps 706 mmHg 72%
19:00 +19°C° 0.2 mm 0 mps 706 mmHg 81%
20:00 +20°C° 0 mm 1 mps 706 mmHg 83%
21:00 +19°C° 0 mm 1 mps 706 mmHg 85%
22:00 +18°C° 0 mm 1 mps 706 mmHg 87%
23:00 +16°C° 0 mm 1 mps 706 mmHg 87%

17 June, Thursday

Time Temperature Precipitation Wind Pressure Humidity
00:00 +16°C° 0 mm 1 mps 706 mmHg 88%
01:00 +16°C° 0 mm 1 mps 706 mmHg 88%
02:00 +15°C° 0 mm 1 mps 706 mmHg 88%
03:00 +15°C° 0 mm 1 mps 706 mmHg 88%
04:00 +15°C° 0 mm 1 mps 706 mmHg 88%
05:00 +16°C° 0 mm 1 mps 706 mmHg 83%
06:00 +19°C° 0 mm 1 mps 707 mmHg 77%
07:00 +21°C° 0 mm 1 mps 707 mmHg 71%
08:00 +23°C° 0 mm 1 mps 707 mmHg 64%
09:00 +24°C° 0 mm 1 mps 708 mmHg 57%
10:00 +26°C° 0 mm 1 mps 708 mmHg 50%
11:00 +27°C° 0 mm 1 mps 708 mmHg 49%
12:00 +27°C° 0 mm 1 mps 708 mmHg 47%
13:00 +28°C° 0 mm 2 mps 707 mmHg 46%
14:00 +27°C° 0 mm 1 mps 707 mmHg 49%
15:00 +27°C° 0 mm 1 mps 707 mmHg 53%
16:00 +26°C° 0 mm 1 mps 707 mmHg 57%
17:00 +25°C° 0.2 mm 1 mps 707 mmHg 66%
18:00 +23°C° 0.2 mm 1 mps 707 mmHg 75%
19:00 +22°C° 0.2 mm 1 mps 707 mmHg 84%
20:00 +20°C° 0.2 mm 1 mps 707 mmHg 86%
21:00 +19°C° 0.2 mm 1 mps 707 mmHg 89%
22:00 +18°C° 0.2 mm 1 mps 707 mmHg 92%
23:00 +16°C° 0.1 mm 1 mps 707 mmHg 92%

18 June, Friday

Time Temperature Precipitation Wind Pressure Humidity
00:00 +16°C° 0.1 mm 1 mps 707 mmHg 92%
01:00 +16°C° 0.1 mm 1 mps 707 mmHg 92%
02:00 +16°C° 0 mm 1 mps 706 mmHg 92%
03:00 +15°C° 0 mm 1 mps 706 mmHg 92%
04:00 +15°C° 0 mm 1 mps 706 mmHg 92%
05:00 +18°C° 0 mm 1 mps 706 mmHg 89%
06:00 +19°C° 0 mm 1 mps 707 mmHg 86%
07:00 +20°C° 0 mm 1 mps 707 mmHg 83%
08:00 +22°C° 0 mm 1 mps 707 mmHg 73%
09:00 +24°C° 0 mm 1 mps 708 mmHg 62%
10:00 +25°C° 0 mm 2 mps 708 mmHg 52%
11:00 +26°C° 0 mm 2 mps 708 mmHg 50%
12:00 +27°C° 0 mm 2 mps 708 mmHg 47%
13:00 +28°C° 0 mm 2 mps 707 mmHg 45%
14:00 +27°C° 0 mm 2 mps 707 mmHg 47%
15:00 +27°C° 0 mm 2 mps 707 mmHg 50%
16:00 +27°C° 0 mm 2 mps 707 mmHg 52%
17:00 +25°C° 0 mm 2 mps 707 mmHg 61%
18:00 +24°C° 0 mm 1 mps 707 mmHg 71%
19:00 +22°C° 0 mm 1 mps 707 mmHg 80%
20:00 +21°C° 0 mm 1 mps 707 mmHg 83%
21:00 +20°C° 0 mm 1 mps 707 mmHg 87%
22:00 +18°C° 0 mm 1 mps 707 mmHg 90%
23:00 +18°C° 0 mm 1 mps 707 mmHg 90%

19 June, Saturday

Time Temperature Precipitation Wind Pressure Humidity
00:00 +18°C° 0 mm 1 mps 707 mmHg 90%
01:00 +18°C° 0 mm 1 mps 707 mmHg 90%
02:00 +18°C° 0 mm 1 mps 707 mmHg 90%
03:00 +16°C° 0 mm 1 mps 707 mmHg 90%
04:00 +16°C° 0 mm 1 mps 707 mmHg 90%
05:00 +19°C° 0 mm 1 mps 707 mmHg 84%
06:00 +21°C° 0 mm 1 mps 707 mmHg 78%
07:00 +21°C° 0 mm 0 mps 707 mmHg 72%
08:00 +24°C° 0 mm 1 mps 707 mmHg 66%
09:00 +26°C° 0 mm 1 mps 708 mmHg 59%
10:00 +27°C° 0 mm 1 mps 708 mmHg 53%
11:00 +28°C° 0 mm 1 mps 708 mmHg 51%
12:00 +29°C° 0 mm 2 mps 708 mmHg 49%
13:00 +29°C° 0 mm 2 mps 707 mmHg 47%
14:00 +29°C° 0 mm 2 mps 707 mmHg 47%
15:00 +29°C° 0 mm 2 mps 707 mmHg 48%
16:00 +29°C° 0 mm 2 mps 707 mmHg 49%
17:00 +28°C° 0.1 mm 1 mps 707 mmHg 59%
18:00 +26°C° 0.1 mm 1 mps 707 mmHg 68%
19:00 +22°C° 0.1 mm 0 mps 707 mmHg 78%
20:00 +23°C° 0 mm 1 mps 707 mmHg 79%
21:00 +22°C° 0 mm 1 mps 707 mmHg 80%
22:00 +21°C° 0 mm 1 mps 707 mmHg 81%
23:00 +21°C° 0 mm 1 mps 707 mmHg 83%
Show more

We Need Your Consent

Meteoprog and our Service Providers may store and access personal data such as cookies, device identifiers or other similar technologies on your device and process such data to personalise content and ads, as well as provide social media features and to analyse the traffic.

  • Store and/or access information on your device

    Cookies, device identifiers or other information can be stored or accessed on your device for the purposes indicated above.

  • Personalised ads and content, ad and content measurement, audience insights, and products development

    Ads and content can be personalised based on a profile. More data can be added to better personalise ads and content. Ad and content performance can be measured. Insights about the audience who saw the ads and content can be derived. Such data can be used to develop or improve user’s experience, systems and software.

By clicking ‘I Agree’ you will allow the use of indicated cookies, device identifiers, web beacons or other similar technologies. Your settings can be changed in the browser on your device.

For certain purposes, legitimate interests may be relied on, rather than consent. You can read more about this in our Privacy and Cookie Policy.